Погода в Аргамакове

Россия / Рязанская область     54°25′09″N   40°31′15″E
темп.,
°C
ветер,
м/с
пор.,
м/с
влажн.,
%
обл.,
%
осадки,
мм/ч
давл.,
гПа
погр.,
м
8 марта, пн
пн800:00−7зюз4109080 0.2 996232
03:00−9з5138257 0.2 998294
06:00−10юз4109259 0.0 998203
09:00−6зюз6119279 0.2 998601
12:00−4з81281100 0.7 9991367
15:00−4зсз7107777 0.9 10011156
18:00−8з46870 0.0 100496
21:00−11зсз34910 0.0 100743
9 марта, вт
вт900:00−13зсз33950 0.0 100926
03:00−15сз33964 0.0 101128
06:00−17сз339864 0.0 101232
09:00−14ссз359575 0.1 1013249
12:00−10ссз358898 0.0 1014623
15:00−9сз468599 0.1 1015863
18:00−12ссз3492100 0.1 101797
21:00−16с349699 0.1 101995
10 марта, ср
ср1000:00−20ссз359615 0.0 102188
03:00−22ссз34989 0.0 102265
06:00−24сз349859 0.0 102471
09:00−22ссз369536 0.0 1026251
12:00−17ссз358564 0.0 1026575
15:00−15ссз458482 0.0 1027719
18:00−19ссз339189 0.0 102722
21:00−22с239444 0.0 102920
11 марта, чт
чт1100:00−24ссз22920 0.0 103020
03:00−25сз22920 0.0 103120
06:00−25зсз22900 0.0 103119
09:00−21з23910 0.0 1032136
12:00−15з34840 0.0 1032403
15:00−13з348740 0.0 1031445
18:00−17зюз339045 0.0 103128
21:00−20юз238822 0.0 103220
12 марта, пт
пт1200:00−22юз33870 0.0 103221
03:00−23ю33850 0.0 103226
06:00−23ю34890 0.0 103158
09:00−18ю510790 0.0 1030294
12:00−13ююв6117767 0.0 1028441
15:00−11ююв7127783 0.0 1025481
18:00−12ююв71480100 0.0 1023508
21:00−11ююв71682100 0.0 1021636